TimeCDT,TemperatureF,Dew PointF,Humidity,Sea Level PressureIn,VisibilityMPH,Wind Direction,Wind SpeedMPH,Gust SpeedMPH,PrecipitationIn,Events,Conditions,WindDirDegrees,DateUTC
12:08 AM,64.4,62.6,94,30.20,8.0,NE,3.5,-,N/A,,Mostly Cloudy,40,2012-10-04 05:08:00
12:38 AM,64.4,62.6,94,30.20,8.0,NE,4.6,-,N/A,,Scattered Clouds,50,2012-10-04 05:38:00
12:53 AM,64.0,63.0,96,30.20,8.0,East,3.5,-,N/A,,Clear,90,2012-10-04 05:53:00
1:44 AM,64.4,62.6,94,30.21,6.0,East,4.6,-,N/A,,Partly Cloudy,90,2012-10-04 06:44:00
1:53 AM,64.0,63.0,96,30.19,6.0,East,4.6,-,N/A,,Scattered Clouds,90,2012-10-04 06:53:00
2:00 AM,64.4,62.6,94,30.21,5.0,East,3.5,-,N/A,,Mostly Cloudy,80,2012-10-04 07:00:00
2:25 AM,64.4,62.6,94,30.21,5.0,Calm,Calm,-,N/A,,Scattered Clouds,0,2012-10-04 07:25:00
2:36 AM,64.4,62.6,94,30.21,5.0,NNE,3.5,-,N/A,,Mostly Cloudy,20,2012-10-04 07:36:00
2:50 AM,64.4,64.4,100,30.21,4.0,North,3.5,-,N/A,,Overcast,10,2012-10-04 07:50:00
2:53 AM,64.9,64.0,97,30.20,2.5,Calm,Calm,-,N/A,,Overcast,0,2012-10-04 07:53:00
2:59 AM,64.4,64.4,100,30.21,0.8,Calm,Calm,-,N/A,,Overcast,0,2012-10-04 07:59:00
3:10 AM,64.4,64.4,100,30.22,2.0,Calm,Calm,-,N/A,,Overcast,0,2012-10-04 08:10:00
3:19 AM,64.4,62.6,94,30.21,3.0,Calm,Calm,-,N/A,,Overcast,0,2012-10-04 08:19:00
3:25 AM,64.4,62.6,94,30.21,1.5,NE,3.5,-,N/A,,Overcast,40,2012-10-04 08:25:00
3:28 AM,64.4,62.6,94,30.21,0.8,NE,3.5,-,N/A,,Mist,40,2012-10-04 08:28:00
3:38 AM,62.6,62.6,100,30.21,0.2,ENE,3.5,-,N/A,Fog,Fog,60,2012-10-04 08:38:00
3:53 AM,64.0,63.0,96,30.20,0.5,East,3.5,-,N/A,Fog,Fog,80,2012-10-04 08:53:00
4:10 AM,64.4,62.6,94,30.22,0.2,Calm,Calm,-,0.01,Fog,Fog,0,2012-10-04 09:10:00
4:53 AM,64.0,63.0,96,30.22,0.2,Calm,Calm,-,0.01,Fog,Fog,0,2012-10-04 09:53:00
5:12 AM,64.4,62.6,94,30.24,0.5,Calm,Calm,-,N/A,Fog,Fog,0,2012-10-04 10:12:00
5:19 AM,64.4,62.6,94,30.24,0.2,Calm,Calm,-,N/A,Fog,Fog,0,2012-10-04 10:19:00
5:53 AM,63.0,62.1,97,30.24,0.2,Calm,Calm,-,N/A,Fog,Fog,0,2012-10-04 10:53:00
6:31 AM,62.6,62.6,100,30.25,0.5,NNE,3.5,-,N/A,Fog,Fog,20,2012-10-04 11:31:00
6:53 AM,63.0,62.1,97,30.25,0.8,North,4.6,-,N/A,,Overcast,10,2012-10-04 11:53:00
6:59 AM,62.6,62.6,100,30.26,1.5,North,3.5,-,N/A,,Overcast,10,2012-10-04 11:59:00
7:03 AM,62.6,62.6,100,30.26,2.5,North,3.5,-,N/A,,Overcast,10,2012-10-04 12:03:00
7:53 AM,64.0,63.0,96,30.26,1.0,Calm,Calm,-,N/A,,Overcast,0,2012-10-04 12:53:00
8:51 AM,64.4,62.6,94,30.28,3.0,NNE,3.5,-,N/A,,Overcast,20,2012-10-04 13:51:00
8:53 AM,64.9,63.0,93,30.28,3.0,NNE,3.5,-,N/A,,Overcast,30,2012-10-04 13:53:00
9:00 AM,64.4,64.4,100,30.29,7.0,NNE,3.5,-,N/A,,Overcast,20,2012-10-04 14:00:00
9:09 AM,66.2,64.4,94,30.29,7.0,NNE,3.5,-,N/A,,Overcast,20,2012-10-04 14:09:00
9:26 AM,69.8,64.4,83,30.28,10.0,NNE,6.9,-,N/A,,Mostly Cloudy,20,2012-10-04 14:26:00
9:42 AM,71.6,64.4,78,30.28,10.0,NE,6.9,-,N/A,,Scattered Clouds,40,2012-10-04 14:42:00
9:53 AM,72.0,66.0,81,30.27,10.0,ENE,5.8,-,N/A,,Clear,60,2012-10-04 14:53:00
10:53 AM,75.0,66.0,73,30.27,10.0,ENE,6.9,-,N/A,,Partly Cloudy,60,2012-10-04 15:53:00
11:46 AM,78.8,66.2,65,30.27,10.0,NE,5.8,-,N/A,,Mostly Cloudy,40,2012-10-04 16:46:00
11:53 AM,78.1,66.9,68,30.26,10.0,ENE,3.5,-,N/A,,Mostly Cloudy,60,2012-10-04 16:53:00
12:39 PM,80.6,66.2,61,30.26,10.0,East,5.8,-,N/A,,Mostly Cloudy,90,2012-10-04 17:39:00
12:53 PM,79.0,66.9,66,30.24,10.0,NNE,5.8,-,N/A,,Mostly Cloudy,30,2012-10-04 17:53:00
1:28 PM,80.6,66.2,61,30.23,10.0,Variable,4.6,-,N/A,,Scattered Clouds,0,2012-10-04 18:28:00
1:53 PM,80.1,66.0,62,30.21,10.0,NNE,4.6,-,N/A,,Mostly Cloudy,30,2012-10-04 18:53:00
2:53 PM,82.9,66.0,56,30.20,10.0,NE,8.1,-,N/A,,Scattered Clouds,50,2012-10-04 19:53:00
3:53 PM,84.0,64.9,53,30.19,10.0,Variable,6.9,-,N/A,,Partly Cloudy,0,2012-10-04 20:53:00
4:53 PM,81.0,64.9,58,30.18,10.0,North,4.6,-,N/A,,Scattered Clouds,10,2012-10-04 21:53:00
5:53 PM,75.9,63.0,64,30.18,10.0,North,5.8,-,N/A,,Clear,360,2012-10-04 22:53:00
6:53 PM,71.1,64.0,78,30.19,10.0,NNE,3.5,-,N/A,,Clear,20,2012-10-04 23:53:00
7:53 PM,70.0,64.0,81,30.19,10.0,NNE,4.6,-,N/A,,Clear,30,2012-10-05 00:53:00
8:53 PM,68.0,64.0,87,30.22,10.0,SE,5.8,-,N/A,,Scattered Clouds,130,2012-10-05 01:53:00
9:53 PM,68.0,64.0,87,30.22,10.0,Calm,Calm,-,N/A,,Clear,0,2012-10-05 02:53:00
10:53 PM,66.0,64.0,93,30.22,10.0,Calm,Calm,-,N/A,,Clear,0,2012-10-05 03:53:00
11:53 PM,66.0,64.0,93,30.20,10.0,NE,3.5,-,N/A,,Clear,40,2012-10-05 04:53:00